Location: Ellingshausen
(50.5460°N, 10.4723°E)
Time: 23:25:50
(UTC+00:00)

USA 307 - Pass Details

Date: 18 January 2026
Orbit: 495 x 502 km, 54.0° (Epoch: 10 March)

Event Time Altitude Azimuth Distance (km) Brightness Sun altitude
Exits shadow 05:57:41 15° 270° (W) 1,409 4.3 -11.3°
Maximum altitude 06:00:03 26° 222° (SW) 1,010 3.9 -10.9°
Drops below altitude 10° 06:03:17 10° 165° (SSE) 1,637 5.7 -10.4°
Sets 06:05:33 0° 153° (SSE) 2,422 6.9 -10.1°
